Location: Dammartin
(48.9032°N, 1.6195°E)
Time: 22:22:50
(UTC+00:00)

FENGYUN 1C DEB - Visible Passes

Search period start: 27 May 2024 00:00
Search period end: 06 June 2024 00:00
Orbit: 599 x 819 km, 98.5° (Epoch: 26 May)

Date Brightness Start Highest point End Pass type
(mag) Time Alt. Az. Time Alt. Az. Time Alt. Az.
27 May ? 01:10:38 21° SSE 01:13:25 67° ENE 01:17:37 10° N visible
27 May ? 02:49:39 11° WSW 02:51:43 14° W 02:54:01 10° WNW visible
28 May ? 00:17:18 10° ESE 00:20:37 22° ENE 00:23:52 10° NNE visible
28 May ? 01:55:57 23° SSW 01:58:16 44° W 02:02:20 10° NNW visible
29 May ? 01:02:14 19° SE 01:05:11 55° ENE 01:09:19 10° N visible
29 May ? 02:41:15 12° SW 02:43:24 17° W 02:46:10 10° NW visible
30 May ? 00:09:29 10° ESE 00:12:27 19° ENE 00:15:23 10° NNE visible
30 May ? 01:47:34 23° S 01:50:00 54° WSW 01:54:08 10° NNW visible
31 May ? 00:53:50 16° SE 00:56:57 45° ENE 01:00:58 10° N visible
31 May ? 02:32:51 14° SW 02:35:04 20° W 02:38:12 10° NW visible
01 Jun ? 00:01:43 10° E 00:04:16 16° ENE 00:06:49 10° NNE visible
01 Jun ? 01:39:08 23° S 01:41:42 66° WSW 01:45:54 10° NNW visible
02 Jun ? 00:45:25 14° SE 00:48:42 37° ENE 00:52:36 10° N visible
02 Jun ? 02:24:25 16° SW 02:26:43 24° W 02:30:08 10° NW visible
02 Jun ? 23:54:03 10° E 23:56:05 13° ENE 23:58:08 10° NNE visible
03 Jun ? 01:30:41 22° S 01:33:24 80° WSW 01:37:37 10° NNW visible
04 Jun ? 00:36:57 11° SE 00:40:27 31° ENE 00:44:11 10° N visible
04 Jun ? 02:15:59 17° SW 02:18:21 28° W 02:22:01 10° NW visible
04 Jun ? 23:46:34 10° ENE 23:47:54 11° NE 23:49:14 10° NE visible
05 Jun ? 01:22:14 20° SSE 01:25:05 84° ENE 01:29:19 10° NNW visible
05 Jun ? 03:02:42 10° W 03:03:35 11° W 03:04:29 10° WNW visible
